www.pogodaiklimat.ru

Погода и климат >> Архив погоды >> Индонезия >> Путусиббау


ПОГОДА на Путусиббау

  • Прогноз погоды на Путусиббау
  • Монитор погоды на Путусиббау

АРХИВ ПОГОДЫ на Путусиббау

Время (UTC), дата Ветер
(напр.,м/с)
 
Видим.   Явления Облачность Т
(С)
Тd
(С)
f
(%)
Тe
(С)
Тes
(С)
Комфортность P
(гПа)
Po
(гПа)
Тmin
(С)
Tmax
(С)
R
(мм)
R24
(мм)
S
(см)
00 19.06 штиль 0 6000 м 9/6 300 м
[Sc As op Ci fib]
+24.6 +23.6 94 +33 +34 очень
душно
1013.0 1007.9 +23.0 1
03 19.06 Ю 2 8000 м {дождь} 8/5 400 м
[Sc As trans Ci fib]
+29.2 +24.3 75 +41 +47 опасность
перегрева
1012.6 1007.5 0.2
06 19.06 штиль 0 10 км {дождь} 8/5 420 м
[Cu hum As trans Ci fib]
+32.8 +23.2 57 +43 +51 опасность
перегрева
1009.9 1004.8 0.2
09 19.06 штиль 0 10 км 6/3 420 м
[Cu med, cong As op Ci fib]
+32.0 +24.3 64 +44 +46 опасность
перегрева
1008.1 1003.0
12 19.06 штиль 0 10 км 8/4 420 м
[Cu med, cong As op Ci fib]
+28.0 +25.7 87 +41 +41 опасность
перегрева
1010.4 1005.3 +34.2
00 20.06 штиль 0 7000 м 10/5 240 м
[Sc diur, vesp Ac As Ci fib]
+25.0 +23.6 92 +34 +35 очень
душно
1013.0 1007.9 +23.2 0.0
03 20.06 штиль 0 8000 м 10/4 300 м
[Cu med, cong As op Ci fib]
+28.0 +24.2 80 +39 +46 очень
душно
1013.3 1008.2
06 20.06 Ю 2 10 км 9/4 420 м
[Cu med, cong As op Ci fib]
+31.4 +25.1 69 +45 +51 опасность
перегрева
1010.6 1005.5
09 20.06 СЗ 2 10 км 6/3 420 м
[Cu med, cong As op Ci fib]
+32.2 +24.8 65 +45 +47 опасность
перегрева
1009.1 1004.2
12 20.06 штиль 0 8000 м 9/4 360 м
[Cu med, cong As op Ci fib]
+28.0 +25.7 87 +41 +41 опасность
перегрева
1010.5 1005.4 +32.6
00 21.06 штиль 0 10 км 8/4 300 м
[Sc diur, vesp As trans Ci fib]
+25.6 +24.4 93 +36 +37 очень
душно
1012.0 1006.9 +24.0
03 21.06 штиль 0 10 км 8/4 420 м
[Cu med, cong As trans Ci fib]
+30.6 +25.4 74 +45 +54 опасность
перегрева
1010.9 1005.8
06 21.06 С 2 10 км 8/4 420 м
[Cu med, cong As op Ci fib]
+32.6 +24.6 63 +46 +52 опасность
перегрева
1008.7 1003.6
09 21.06 З 2 10 км 5/3 450 м
[Cu hum As trans Ci fib]
+32.9 +23.8 59 +44 +46 опасность
перегрева
1007.5 1002.4
12 21.06 штиль 0 8000 м 5/3 420 м
[Cu hum As trans Ci fib]
+28.9 +25.3 81 +42 +42 опасность
перегрева
1009.2 1004.1 +33.4
00 22.06 штиль 0 7000 м {дождь} 9/6 300 м
[Sc As op Ci sp]
+24.3 +23.3 94 +33 +34 очень
душно
1011.6 1006.5 +23.3 13
03 22.06 СВ 2 10 км 8/5 360 м
[Sc As trans Ci fib]
+28.7 +24.3 77 +40 +46 очень
душно
1011.3 1006.2
06 22.06 СЗ 3 8000 м 8/5 420 м
[Cu med, cong As op Ci fib]
+31.8 +23.9 63 +43 +48 опасность
перегрева
1008.7 1003.6
09 22.06 Ю 2 10 км 4/3 450 м
[Sc diur, vesp As trans Ci fib]
+30.8 +24.4 69 +43 +45 опасность
перегрева
1007.6 1002.5
12 22.06 штиль 0 5000 м 6/5 420 м
[Sc diur, vesp As trans Ci fib]
+27.7 +25.3 87 +40 +40 очень
душно
1009.5 1004.4 +32.5
00 23.06 В 2 7000 м 4/3 450 м
[Sc diur, vesp As trans Ci fib]
+25.1 +23.5 91 +34 +36 очень
душно
1012.2 1007.1 +24.2
03 23.06 штиль 0 10 км 8/6 400 м
[Cu med, cong Ac lent Ci fib]
+29.1 +25.5 81 +43 +49 опасность
перегрева
1011.5 1006.4
06 23.06 Ю 3 10 км 4/3 450 м
[Cu hum As trans Ci fib]
+32.8 +24.3 61 +45 +54 опасность
перегрева
1009.1 1004.1
09 23.06 ЮЗ 3 10 км 6/4 420 м
[Cu med, cong As trans Ci fib]
+32.9 +24.1 60 +45 +46 опасность
перегрева
1007.8 1002.7
12 23.06 штиль 0 10 км 6/4 400 м
[Cu med, cong As trans Ci fib]
+28.6 +25.8 85 +43 +43 опасность
перегрева
1009.6 1004.5 +33.6
00 24.06 штиль 0 8000 м 9/6 300 м
[Sc As op Ci fib]
+25.3 +24.1 93 +35 +36 очень
душно
1012.8 1007.7 +23.4
03 24.06 штиль 0 10 км 8/4 420 м
[Cu hum As trans Ci fib]
+29.5 +24.4 74 +41 +50 опасность
перегрева
1012.8 1007.7
06 24.06 штиль 0 10 км 9/5 420 м
[Cu hum As op Ci fib]
+32.8 +22.9 56 +43 +49 опасность
перегрева
1010.4 1005.3
09 24.06 С 3 10 км 8/4 420 м
[Cu hum As trans Ci fib]
+32.6 +24.6 63 +46 +47 опасность
перегрева
1009.5 1004.4
12 24.06 штиль 0 8000 м 9/4 400 м
[Sc diur, vesp As op Ci fib]
+28.0 +25.1 84 +40 +40 очень
душно
1011.1 1006.1 +33.6
00 25.06 штиль 0 4000 м мгла 10/5 240 м
[Frnb As op Ci fib]
+25.6 +24.1 91 +35 +36 очень
душно
1013.7 1008.6 +24.0
03 25.06 штиль 0 10 км 9/4 360 м
[Cu med, cong As op Ci fib]
+30.4 +25.5 75 +45 +52 опасность
перегрева
1013.3 1008.2
06 25.06 штиль 0 10 км 8/4 420 м
[Cu med, cong As op Ci fib]
+33.0 +24.4 61 +46 +54 опасность
перегрева
1010.6 1005.5
09 25.06 С 2 10 км 8/4 420 м
[Cu med, cong Ac lent Ci fib]
+32.8 +24.0 60 +45 +46 опасность
перегрева
1009.2 1004.1
12 25.06 штиль 0 6000 м 9/4 360 м
[Cu med, cong Ac lent Ci fib]
+30.1 +26.3 80 +46 +46 опасность
перегрева
1011.0 1005.9 +34.2

 

Местоположение метеостанции Путусиббау (Индонезия): широта 0.84 долгота 112.94 высота над уровнем моря 32 м.

В архиве по умолчанию представлена погода на Путусиббау за последнюю неделю. Архивные данные за месяц целиком и за предыдущие месяцы, начиная с января 2011 года, Вы можете получить, выбрав интересующий диапазон дат из раскрывающегося списка и нажав кнопку "Ввод!".


*Определитесь, кто Вы:
робот инопланетянин человек

Внимание! Время в таблицах - всемирное. Для получения местного времени необходимо прибавить поправку, которая равна 7 ч.

Смотрите также архив погоды в соседних городах и на ближайших метеорологических станциях:

Погода в Синтанге (Индонезия) (176 км)
Погода в Нангапинохе (Индонезия) (185 км)
Погода в Сибу (Малайзия) (207 км)
Погода в Паоанкарая (Индонезия) (236 км)
Погода в Бинталу (Малайзия) (263 км)
Погода в Муаратевехе (Индонезия) (295 км)
Погода в Кучинге (Малайзия) (299 км)
Погода в Мири (Малайзия) (405 км)
Погода в Понтианаке (Индонезия) (409 км)
Погода в Пангкалан-Буне (Индонезия) (417 км)

Пояснения к столбцам:

Ветер - указаны скорость ветра в м/с - средняя за 10 мин, порывы в срок и между сроками (в фигурных скобках) и направление, откуда дует ветер: С - северный, СВ - северо-восточный, В - восточный, ЮВ - юго-восточный, Ю - южный, ЮЗ - юго-западный, З - западный, СЗ - северо-западный.
Видимость - горизонтальная дальность видимости в метрах или километрах. При видимости от 1 до 10 км при отсутствии осадков обычно наблюдается дымка, при ухудшении видимости до 1 км и менее - туман. В сухую погоду видимость может ухудшаться дымом, пылью или мглою.
Явления - указаны атмосферные явления, наблюдавшиеся в срок или в последний час перед сроком; фигурными скобками обозначены явления, наблюдавшиеся между сроками (за 1-3 часа до срока); квадратными скобками обозначены град или гололедные отложения с указанием их диаметра в мм.
Облачность - указаны через наклонную черту общая и нижняя облачность в баллах и высота нижней границы облаков в метрах; квадратными скобками обозначены формы облаков: Ci - перистые, Cs - перисто-слоистые, Cc - перисто-кучевые, Ac - высококучевые, As - высокослоистые, Sc - слоисто-кучевые, Ns - слоисто-дождевые, Cu - кучевые, Cb - кучево-дождевые. Подробнее классификацию облаков см. в Атласе облаков (PDF).
T - Температура воздуха - температура, измеренная на высоте 2 м над землей.
Td - Температура точки росы - температура, при понижении до которой содержащийся в воздухе водяной пар достигнет насыщения.
f - Относительная влажность воздуха - влажноcть воздуха, измеренная на высоте 2 м над землей.
Te - Эффективная температура - температура, которую ощущает одетый по сезону человек в тени. Характеристика душности погоды. При расчете учитывается влияние влажности воздуха и скорости ветра на теплоощущения человека.
Tes - Эффективная температура на солнце - температура, которую ощущает человек, с поправкой на солнечный нагрев. Характеристика знойности погоды. Зависит от высоты солнца над горизонтом, облачности и скорости ветра. Ночью, в пасмурную погоду, а также при ветре 12 м/с и более поправка равна нулю.
P - Атмосферное давление - приведенное к уровню моря атмосферное давление.
Po - Атмосферное давление - измеренное на уровне метеостанции атмосферное давление.
Tmin - Минимальная температура - минимум температуры воздуха на высоте 2 м над землей.
Tmax - Максимальная температура - максимум температуры воздуха на высоте 2 м над землей.
R - Количество осадков - Количество выпавших осадков за период времени, мм. При наведении курсора мыши на число - период времени, за который выпало указанное количество осадков.
R24 - Количество осадков - Количество выпавших осадков за 24 часа, мм.
S - Снежный покров - Высота снежного покрова, см. При наведении курсора мыши на число - состояние снежного покрова и степень покрытия местности в баллах.